GFSSW_700_spd_036.txt.gz
Wind_Speed
16 16 16 16 16 15 15 16 17 17 19 18 18 19 21 20 16 12 9 7 6 5 3 3 5 7 10 7 1 3 5 10 11 10 9 7 5 5 6 7 8 9 11 11 12
16 15 15 15 15 15 14 15 15 16 16 16 16 16 16 17 13 10 5 2 1 1 2 3 3 5 6 7 2 2 6 9 9 8 6 6 6 6 8 9 9 11 12 13 13
15 15 15 14 14 14 14 15 15 14 14 14 14 13 12 11 9 8 5 4 4 7 6 7 7 8 7 6 2 1 5 6 7 6 6 7 7 8 9 10 11 12 13 13 14
13 13 13 13 14 13 14 14 14 13 12 13 12 11 10 9 3 6 5 4 5 7 8 9 10 9 8 5 2 1 4 5 5 5 5 6 7 9 10 11 11 12 12 13 14
12 12 12 12 12 12 13 13 12 11 11 12 11 10 10 9 2 5 5 4 6 8 9 10 8 5 4 3 1 2 3 4 3 4 6 7 8 10 11 11 12 12 12 13 12
12 11 11 11 11 12 12 12 11 10 9 9 10 9 9 6 4 5 4 4 6 8 9 7 4 2 2 1 2 3 3 3 2 4 6 9 11 13 12 12 11 11 12 12 11
11 11 11 12 11 12 12 10 9 8 7 8 8 9 8 3 4 3 1 2 5 6 5 3 1 2 2 2 3 2 3 4 6 8 10 11 12 10 11 11 11 11 11 11 12
9 10 10 11 11 11 11 9 8 7 7 7 6 5 5 4 3 2 1 2 2 1 1 2 3 4 3 2 1 2 3 5 7 9 10 11 13 12 13 14 14 12 11 9 12
8 8 9 10 11 10 8 7 7 7 6 5 5 4 4 4 2 1 2 2 3 2 3 4 5 5 4 3 2 3 4 7 10 9 11 13 15 15 19 18 15 13 9 8 15
7 7 8 10 10 9 8 6 6 6 5 5 5 3 5 4 4 4 2 1 2 3 5 6 6 5 5 3 3 3 5 8 9 12 16 19 21 22 21 20 16 12 11 11 18
6 7 9 9 9 8 7 8 7 5 7 3 5 2 6 6 5 3 1 2 4 5 5 5 5 3 4 3 5 7 8 9 11 15 20 24 26 20 21 18 13 11 11 12 19
5 6 8 8 8 9 9 8 3 6 3 4 5 6 5 3 2 1 2 3 4 4 5 6 4 4 5 5 7 9 10 9 14 18 25 25 18 10 10 8 11 10 8 13 22
5 6 7 8 9 9 7 4 6 5 4 5 5 4 3 3 3 3 3 3 4 4 5 3 5 5 5 7 10 10 10 12 17 23 23 16 8 12 4 1 5 9 10 18 24
5 6 8 9 9 7 5 8 5 2 1 4 5 4 4 4 5 4 4 3 3 4 5 3 5 5 5 7 11 11 11 16 20 20 7 15 9 5 8 6 6 9 12 21 25
7 6 9 11 8 6 8 6 3 2 4 4 7 5 6 7 4 3 4 4 5 5 3 5 5 5 5 7 12 10 15 19 21 12 9 7 4 5 3 7 10 12 18 24 26
8 7 10 11 6 8 8 5 2 2 4 3 4 5 6 7 8 6 5 5 6 5 5 5 5 5 5 8 12 12 17 18 11 7 2 3 6 5 5 12 11 16 24 26 28
9 9 11 11 8 10 8 4 3 4 3 2 4 6 6 6 6 6 6 6 4 2 2 5 6 5 5 7 9 14 14 5 2 2 4 10 9 8 13 17 13 23 27 29 30
11 11 12 14 8 12 9 5 4 4 5 7 6 7 8 7 7 7 7 7 6 4 5 3 2 3 2 5 7 6 8 4 4 5 11 16 5 7 12 15 19 25 30 31 30
13 13 14 15 13 13 12 8 4 3 4 8 8 9 8 8 7 6 8 9 6 4 3 2 4 4 5 5 6 5 4 6 4 7 6 5 9 8 13 17 23 29 32 32 31
14 14 14 16 15 14 15 15 8 7 12 12 8 7 6 6 7 5 6 5 7 5 3 3 3 4 5 6 5 4 4 4 3 4 5 6 10 10 15 24 28 31 33 34 33
15 16 15 16 17 16 20 18 14 12 12 10 10 11 8 8 9 8 6 6 8 5 4 4 5 4 6 5 6 6 6 3 4 5 4 5 10 12 17 29 33 33 35 36 35
16 17 16 17 18 19 22 19 15 14 14 14 13 13 13 10 9 9 10 8 7 6 5 5 4 6 9 10 11 11 10 9 4 4 9 6 16 15 30 31 34 34 37 36 35
18 18 17 17 21 21 20 18 15 15 14 14 12 11 11 12 8 10 9 9 9 8 5 4 4 3 4 7 9 12 12 13 14 14 15 6 11 27 29 30 33 33 36 35 35
17 16 19 21 22 20 20 21 20 17 18 16 16 13 13 13 13 8 11 9 10 10 9 8 11 12 9 11 15 18 22 21 19 11 12 25 30 24 27 32 30 32 33 34 34
18 20 21 12 20 23 20 20 17 13 13 15 17 16 15 15 14 16 15 14 13 12 11 11 15 16 16 18 20 25 27 24 27 24 22 24 32 28 27 30 32 32 33 33 32
20 21 22 23 22 18 19 26 24 21 20 18 18 15 15 16 16 14 10 14 15 13 14 16 16 17 23 22 21 22 23 27 26 24 28 24 30 22 28 32 33 32 32 31 31
23 22 23 25 24 22 24 20 17 20 20 19 17 18 17 15 17 18 18 17 18 16 15 17 18 17 17 15 17 23 6 8 16 16 18 24 23 26 30 32 33 33 32 31 30

GFSSW_700_spd_042.txt.gz
Wind_Speed
13 13 12 13 13 15 17 17 19 21 24 23 21 19 18 16 14 11 7 4 2 1 4 6 10 13 11 6 3 6 4 4 4 7 11 8 10 10 10 11 11 12 15 16 13
13 13 12 13 14 15 16 17 17 18 20 21 18 16 15 13 8 8 6 3 1 3 4 7 1 6 8 5 1 3 3 10 9 13 10 7 9 8 10 12 13 13 14 17 16
13 13 12 12 13 14 14 15 15 15 16 15 15 13 11 8 3 2 0 1 2 3 3 4 5 6 7 4 2 3 6 6 6 6 7 6 8 8 10 13 13 13 14 16 17
11 11 11 11 12 12 12 12 12 12 12 12 11 10 8 8 2 2 2 2 3 3 5 5 5 7 7 4 2 2 3 3 4 6 7 7 9 10 10 15 14 17 15 17 17
10 10 10 10 10 10 10 10 10 9 9 9 9 8 7 6 4 5 3 4 4 5 5 4 3 5 4 3 3 2 4 4 5 5 7 8 10 12 11 17 13 17 18 18 18
9 9 9 9 9 9 8 8 8 8 7 7 7 7 6 4 6 4 3 5 5 5 4 3 3 3 3 3 5 5 4 4 5 6 7 10 12 13 14 14 15 17 17 18 18
9 8 8 8 8 8 7 6 6 5 5 5 6 6 8 5 6 4 4 5 5 4 3 4 3 3 5 5 3 3 3 4 5 7 9 11 10 10 13 13 16 17 18 18 17
8 8 7 7 7 7 6 5 4 4 4 4 5 6 7 6 5 4 4 3 2 3 4 4 5 5 4 3 4 5 7 5 11 13 10 11 11 13 16 18 20 21 20 17 18
7 7 7 7 6 6 5 4 4 4 4 5 5 6 4 5 3 3 1 1 2 3 4 5 5 4 3 6 7 6 5 5 10 13 13 13 15 21 20 19 19 20 18 16 16
6 6 6 6 6 6 4 3 3 5 5 5 6 5 6 3 3 2 1 1 3 4 1 6 6 7 7 3 3 4 5 6 10 15 17 20 20 14 19 17 17 16 13 14 12
4 5 5 6 5 5 4 5 3 3 4 4 3 8 6 3 3 2 2 4 5 3 5 6 2 5 9 4 3 5 5 7 11 15 19 19 16 11 13 11 10 13 13 12 15
4 4 5 5 5 4 4 3 3 3 3 5 5 6 4 4 4 2 4 5 5 1 9 3 7 8 7 3 4 5 5 6 12 14 17 12 5 4 7 9 10 13 14 16 19
3 3 4 5 4 4 5 1 2 1 4 2 3 4 5 5 6 5 6 6 5 4 4 7 9 8 6 3 4 2 9 8 13 15 6 13 2 5 5 8 12 15 15 15 18
2 2 3 4 5 6 3 2 2 2 3 5 5 6 6 8 8 8 7 6 6 5 7 9 6 7 6 5 5 4 7 12 11 4 2 7 5 10 6 11 13 14 15 16 19
3 3 4 5 6 5 3 4 2 2 3 4 5 7 8 8 8 5 5 6 8 10 7 8 10 8 7 8 7 7 10 8 3 1 5 5 3 6 9 13 18 15 16 17 21
5 5 4 6 6 6 6 5 3 2 4 3 6 7 7 7 10 11 11 9 10 12 12 15 12 10 9 7 7 7 7 4 4 3 4 9 2 8 9 9 17 18 18 20 23
8 7 6 7 7 6 6 4 2 4 3 3 6 8 8 9 11 10 12 11 7 5 9 9 12 12 11 9 7 4 5 3 2 2 4 9 8 8 15 15 17 22 24 24 26
10 9 9 9 9 8 8 6 4 4 5 7 7 11 9 10 11 12 12 12 11 12 12 7 9 8 8 10 5 4 1 2 3 3 3 12 7 8 15 19 18 22 25 27 28
12 12 11 11 11 11 10 8 4 6 7 7 13 8 6 9 8 12 12 11 15 11 10 4 8 9 11 10 8 6 6 4 5 7 4 6 8 14 17 14 21 24 28 29 29
13 14 13 13 13 14 14 16 10 13 15 9 9 8 7 8 9 7 4 10 11 14 13 10 9 14 13 14 15 14 7 4 3 2 4 8 13 15 17 14 21 26 30 31 32
14 15 14 14 15 16 21 17 17 20 18 14 11 12 16 13 15 12 9 14 17 12 12 13 11 9 10 11 13 14 14 9 6 5 4 3 8 10 16 16 19 26 31 32 33
15 16 15 14 17 17 22 18 23 24 17 16 17 17 17 15 18 13 14 15 11 10 14 14 9 12 17 15 15 16 14 13 6 6 9 4 24 8 10 17 24 28 31 31 33
16 17 17 17 17 19 21 20 23 24 21 23 20 16 18 17 13 10 17 17 18 16 10 9 8 7 7 13 20 23 22 21 19 17 18 6 15 14 21 25 25 30 32 32 32
16 14 16 19 21 22 17 18 22 21 23 22 23 22 23 22 20 16 17 14 12 14 16 18 19 17 13 7 13 14 15 16 22 17 24 36 39 31 25 25 27 28 31 32 33
19 18 19 15 13 17 21 23 21 18 22 21 25 23 19 21 21 23 22 23 23 22 20 19 24 24 26 26 24 27 29 29 30 36 28 40 34 37 26 26 24 25 26 30 32
23 23 24 24 23 22 21 23 20 24 27 27 24 19 24 24 21 22 24 21 19 18 16 22 24 26 31 27 25 25 29 30 36 40 44 42 39 20 17 21 24 25 29 30 31
26 26 27 27 25 26 24 23 22 21 20 20 22 27 28 29 25 25 28 28 27 25 22 21 21 20 21 21 20 26 32 24 26 31 37 34 22 20 21 22 27 25 30 33 35

GFSSW_700_spd_045.txt.gz
Wind_Speed
12 10 11 13 16 18 19 22 26 26 25 23 21 18 16 16 15 10 7 6 3 3 4 5 1 6 9 5 4 7 4 6 5 6 4 5 8 11 11 12 12 14 14 11 12
11 11 12 15 16 17 19 21 24 24 23 20 18 16 13 12 8 7 6 3 1 1 2 2 5 6 7 4 4 7 6 11 6 4 4 6 8 11 12 12 13 14 13 12 13
11 11 12 14 15 17 18 18 20 21 20 18 16 13 10 7 5 3 2 1 0 1 1 3 3 4 3 3 3 6 8 9 7 7 5 8 7 9 12 11 11 13 12 13 15
11 10 11 12 13 15 15 16 16 16 17 16 13 11 11 7 1 1 2 1 1 2 3 3 5 3 5 3 2 4 5 4 6 6 5 7 7 8 11 13 12 11 11 14 15
9 10 10 10 11 12 12 13 13 13 13 12 11 10 8 6 3 4 3 2 2 4 5 4 3 2 2 3 3 3 4 3 4 5 5 7 8 10 10 14 12 13 13 14 15
8 9 9 9 10 10 9 9 10 9 9 9 8 8 7 3 3 3 2 3 3 4 3 1 0 2 2 3 5 4 3 3 2 4 7 8 10 11 11 9 11 14 15 16 17
7 6 7 7 8 9 8 7 7 7 7 8 7 8 7 6 6 4 3 4 3 1 0 1 2 3 3 4 2 2 2 2 2 7 7 9 9 9 9 12 15 16 17 18 17
6 6 6 6 7 7 6 6 5 6 5 5 6 8 8 7 5 5 4 3 0 1 1 2 3 3 1 0 2 2 1 3 6 9 8 10 10 12 16 15 14 14 15 14 14
7 7 7 6 6 6 5 4 4 4 5 5 5 9 8 5 4 4 2 2 1 1 2 2 2 1 2 2 1 1 3 5 7 11 10 13 17 16 10 8 8 10 10 10 11
6 6 6 7 6 6 6 5 6 5 6 5 6 8 8 4 4 3 3 2 2 3 2 2 3 3 1 5 5 5 5 8 10 11 15 18 12 12 5 2 4 6 7 7 8
4 6 6 6 6 6 5 4 3 3 5 5 4 11 7 5 4 4 4 3 3 3 1 2 4 4 4 9 7 6 8 7 10 12 17 16 10 3 1 2 3 4 5 7 8
4 5 5 6 5 4 3 2 3 3 1 4 6 7 6 5 5 5 5 5 5 5 2 5 8 7 9 9 7 7 6 7 11 12 16 9 3 2 1 2 4 6 8 8 10
3 4 5 5 4 4 4 1 1 2 3 3 4 4 5 6 7 6 7 6 6 6 7 8 8 8 11 9 8 8 9 11 13 15 9 7 8 5 3 5 6 7 9 11 13
3 3 3 3 4 5 3 3 2 3 4 3 4 5 6 8 9 7 8 7 7 7 7 8 8 8 10 11 9 9 8 11 14 9 4 4 6 13 12 8 7 8 10 13 16
4 3 2 4 3 4 3 3 2 3 3 2 2 5 7 8 8 6 5 6 8 9 9 9 8 12 12 12 10 9 10 11 8 8 8 10 6 7 12 12 7 11 14 15 16
6 5 4 4 5 4 4 4 3 2 3 2 3 6 7 7 8 9 10 10 10 11 12 14 14 13 11 10 10 11 10 9 7 4 5 9 9 10 12 8 12 15 17 18 19
7 7 6 5 6 6 5 5 3 4 3 2 3 8 10 10 9 9 10 10 9 6 8 7 9 13 14 13 13 11 9 4 2 2 7 7 10 18 11 10 11 14 16 19 21
8 8 7 7 7 6 7 7 6 2 6 8 7 11 11 8 9 8 9 11 10 9 12 8 9 6 7 12 9 8 8 5 5 3 4 7 11 5 9 13 14 16 18 21 23
10 9 9 9 9 9 8 10 5 3 6 6 10 7 7 5 8 10 9 9 11 8 7 5 7 7 9 10 11 8 11 8 6 7 5 8 13 17 16 11 14 17 21 23 25
11 11 11 12 11 11 13 15 10 12 13 15 11 7 6 9 9 8 8 8 9 8 12 12 11 15 15 16 18 19 11 7 8 3 5 8 14 21 16 18 16 19 21 23 24
12 12 12 12 13 15 18 18 17 19 17 17 18 15 15 15 15 15 9 13 18 15 13 14 16 13 14 12 13 18 23 16 10 8 5 3 10 10 19 16 18 19 23 25 24
14 13 13 13 14 16 19 17 18 21 20 18 18 19 18 16 19 19 16 15 18 22 18 15 11 16 19 20 18 18 18 19 12 7 10 5 28 25 16 13 18 21 27 29 28
16 15 15 16 16 16 17 18 16 19 20 23 20 19 19 18 15 10 15 16 16 17 10 8 8 7 7 12 19 22 23 23 24 26 24 6 21 24 16 31 26 30 29 31 31
18 16 16 17 18 19 19 18 16 18 19 19 19 20 21 22 21 18 20 17 15 18 19 18 22 23 20 19 17 21 26 21 25 26 31 38 50 41 41 38 33 35 32 30 30
20 20 21 16 11 13 13 18 19 19 21 19 22 17 18 23 22 20 19 19 21 21 21 22 27 28 29 29 30 31 32 31 34 39 42 49 46 47 41 39 32 27 25 28 29
24 23 23 24 22 22 21 22 22 19 21 28 26 18 20 22 22 26 23 25 25 23 21 22 26 28 34 29 29 32 33 35 38 40 46 49 53 33 28 18 20 25 25 27 28
27 28 28 29 26 25 25 22 21 21 22 21 20 21 22 19 22 25 27 28 31 31 30 29 29 28 33 28 23 20 37 34 36 37 36 42 31 26 18 19 20 22 26 26 30

GFSSW_700_spd_048.txt.gz
Wind_Speed
10 9 9 12 16 20 25 29 29 27 25 22 21 19 18 17 15 10 7 5 4 1 1 2 3 4 6 7 7 9 10 12 10 9 7 8 10 10 12 13 13 13 12 10 10
10 11 11 15 17 20 25 28 27 25 23 20 19 17 15 13 9 9 7 4 3 2 2 2 3 4 4 4 8 11 10 9 8 6 6 8 9 11 13 13 12 10 10 10 11
10 11 14 15 17 19 22 25 25 23 21 18 15 14 13 10 7 6 7 6 5 5 4 4 6 5 4 3 7 11 12 11 12 9 8 9 10 12 13 12 10 10 10 11 12
11 11 14 15 16 17 18 21 22 21 18 16 14 12 11 8 4 4 7 7 4 4 5 6 7 6 5 3 5 8 8 11 10 9 9 10 10 12 13 11 10 10 10 11 12
11 11 12 13 14 15 16 16 18 18 17 16 14 13 12 10 7 5 6 5 5 5 5 6 6 6 4 4 4 6 6 8 8 8 8 9 9 13 10 12 9 9 10 11 12
10 10 11 11 12 12 12 13 13 14 14 14 13 12 10 8 6 4 5 5 6 6 5 5 3 4 6 5 5 6 6 7 7 6 7 9 11 13 9 10 10 11 12 12 12
9 9 9 10 9 10 10 10 10 11 12 12 12 11 10 9 7 6 5 5 5 6 4 4 4 5 6 6 5 5 4 4 6 5 8 10 12 8 9 12 14 13 12 11 9
9 8 8 8 9 9 8 8 8 9 10 11 12 10 11 9 8 8 6 4 4 4 4 4 4 5 6 5 4 4 5 5 7 8 9 11 13 12 14 14 11 9 8 7 6
8 8 8 8 8 7 7 8 9 9 8 9 10 9 9 9 8 7 5 4 4 5 5 5 5 5 5 4 6 7 7 9 9 9 13 14 16 14 14 12 8 6 5 4 4
8 8 8 8 7 8 8 8 7 8 8 8 9 8 10 8 7 7 6 6 6 7 7 5 4 6 6 5 6 8 11 12 14 14 16 20 16 13 10 7 6 6 6 5 5
7 7 7 7 7 7 6 5 6 7 9 9 7 9 11 8 7 7 7 7 8 8 7 8 8 8 8 10 11 11 13 14 14 16 20 19 16 10 10 9 7 7 6 5 5
6 7 7 7 7 7 6 6 6 6 7 8 9 10 9 8 6 7 8 8 8 9 10 11 11 9 11 12 13 13 14 14 15 15 20 16 13 12 12 9 8 8 7 6 6
4 5 6 8 8 7 6 5 3 5 6 8 8 7 7 7 7 8 9 9 10 11 12 13 11 12 12 13 14 15 15 14 16 19 22 19 19 16 13 11 9 7 7 6 6
3 4 6 5 5 6 6 4 5 5 5 5 6 5 7 8 10 10 10 10 10 10 11 12 12 13 12 14 14 16 14 12 15 18 7 7 9 16 18 13 10 8 6 6 9
4 5 5 5 6 7 6 4 4 5 3 3 3 3 5 7 8 8 8 9 9 10 12 12 13 13 15 16 14 14 13 15 17 12 16 18 10 14 19 19 12 8 7 8 10
6 6 5 5 7 6 6 6 4 4 5 2 3 3 5 6 7 9 10 11 13 15 16 17 18 18 16 14 15 15 14 16 16 12 7 16 17 18 19 11 10 9 9 12 14
7 7 7 7 6 7 7 7 4 5 2 2 2 6 9 9 9 8 10 12 11 9 11 14 14 16 16 17 18 16 12 5 3 3 8 5 12 27 18 14 11 10 9 13 15
8 9 9 9 9 8 8 8 7 3 5 6 8 9 9 5 6 6 10 12 11 13 14 9 8 8 10 13 12 10 13 6 5 3 5 6 12 12 9 12 16 15 13 14 17
10 10 10 10 10 11 10 11 4 5 7 6 8 11 5 4 7 11 10 14 9 6 7 5 7 8 9 11 11 10 14 14 8 13 6 11 20 29 22 20 15 15 16 17 19
11 11 12 12 12 13 15 16 11 11 13 12 12 8 8 8 11 10 11 9 9 6 7 11 15 15 17 18 20 22 14 8 8 4 5 8 13 22 19 16 17 19 18 20 23
13 12 13 13 14 16 18 18 17 17 19 17 17 17 18 18 16 15 9 13 17 16 10 12 14 16 16 16 16 16 24 23 15 11 5 4 11 18 14 24 26 19 20 23 24
14 14 14 14 15 17 19 19 17 18 17 18 20 20 19 19 21 18 18 15 15 19 21 18 15 21 25 25 25 24 24 22 17 9 12 10 31 37 35 24 20 20 28 29 31
16 16 15 16 17 17 17 18 18 19 18 17 14 16 19 18 15 12 13 21 19 18 12 12 10 9 8 12 16 22 24 26 26 30 34 12 29 24 31 39 38 39 37 39 39
18 16 16 18 19 20 19 20 19 19 18 18 19 18 16 17 19 17 21 19 19 18 20 25 26 29 25 26 27 24 27 23 23 30 37 40 57 49 45 47 46 48 43 42 40
21 20 21 15 12 14 15 16 14 17 19 20 23 21 16 22 22 22 19 18 19 20 21 22 29 29 32 31 34 37 37 37 42 45 44 57 56 54 47 49 44 37 28 23 23
24 23 25 24 22 22 22 23 22 19 20 23 23 21 25 26 21 24 26 28 29 28 29 29 30 30 38 34 35 40 36 39 44 48 53 56 62 46 41 31 30 25 28 23 24
26 27 26 27 26 26 26 25 23 22 20 17 18 19 19 21 22 24 26 26 27 30 32 33 32 31 42 35 31 32 37 35 37 39 38 44 42 38 32 29 23 21 18 22 23